[[{"header":{"parameterUnit":"m.s-1","parameterCategory":1,"la1":30.2991,"la2":30.254,"lo1":-89.0895,"lo2":-89.0444,"dy":0.0017,"dx":0.0017,"nx":28,"ny":28,"refTime":"2025-03-05T03:00:00:Z","depth":0,"parameterNumber":2,"parameterNumberName":"U-component_of_WINDS"},"data":[0,0,0,0,0,0,0,0,0,0,0,0,0,0,0,0,0,0,0,0,0,0,0,0,0,0,0,0,0,0,0,0,0,0,0,0,0,0,0,0,0,0,0,0,0,0,0,0,0,0,0,0,0,0,0,0,0,0,2.7187,2.7188,0,2.722,2.722,2.722,2.7185,2.7183,2.7182,2.7181,2.7212,2.7214,2.7216,0,0,0,0,0,0,0,0,0,0,0,0,0,2.7094,2.7096,2.7187,2.7188,2.7188,2.7219,2.722,2.722,2.7185,2.7183,2.7182,2.718,2.7211,2.7214,2.7216,0,0,0,0,0,0,0,0,0,0,0,0,0,2.7131,2.7097,2.7187,2.7174,2.7173,2.7219,2.722,2.722,2.7185,2.7183,2.7181,2.7179,2.7211,2.7214,2.7217,2.7277,0,0,2.7226,2.7228,0,0,0,0,0,0,0,0,2.7129,2.7135,2.7176,2.7175,2.7174,2.7196,2.7199,2.7239,2.7186,2.7181,2.7181,2.7178,2.7208,2.7211,2.7222,2.7278,2.7279,2.7227,2.7229,2.723,2.7231,0,0,0,0,0,0,0,2.7127,2.7133,2.72,2.7176,2.7176,2.7167,2.717,2.7206,2.7205,2.7181,2.7178,2.7183,2.7207,2.7219,2.7222,2.728,2.7227,2.7229,2.7231,2.7232,2.7387,2.7389,0,0,0,0,0,0,2.7126,2.7131,2.7199,2.7201,2.7147,2.717,2.7173,2.7191,2.7205,2.7205,2.7185,2.7181,2.7215,2.7219,2.7223,2.7294,2.723,2.7233,2.7235,2.7385,2.7387,2.739,0,0,0,0,0,0,2.7124,2.7132,2.7198,2.7166,2.7173,2.7174,2.7194,2.7193,2.7204,2.7208,2.7207,2.7196,2.7213,2.7219,2.7264,2.7295,2.7234,2.7237,2.7382,2.7386,2.7389,2.7436,0,0,0,0,0,0,2.7122,2.7132,2.7155,2.7166,2.7175,2.7238,2.7196,2.7195,2.721,2.7206,2.7219,2.7219,2.7212,2.7259,2.7267,2.7298,2.724,2.7379,2.7384,2.7388,2.7432,2.7441,2.7448,0,0,0,0,0,2.7118,2.7166,2.7156,2.7164,2.7204,2.724,2.7245,2.7236,2.7213,2.7235,2.7238,2.7218,2.729,2.7264,2.7272,2.7305,2.7377,2.7382,2.7387,2.7428,2.7439,2.7448,0,0,0,0,0,0,2.7158,2.7168,2.7156,2.721,2.7224,2.7234,2.7262,2.7248,2.7269,2.7264,2.7253,2.7256,2.7303,2.7309,2.7279,2.7364,2.733,2.7337,2.7358,2.7368,2.7377,2.7374,2.7242,0,0,0,0,0,2.7173,2.7202,2.7209,2.7255,2.7263,2.7262,2.7277,2.7269,2.7284,2.7289,2.7295,2.7309,2.7335,2.7352,2.7376,2.7433,2.7435,2.7459,2.7468,2.7474,2.748,2.751,2.7521,2.7406,2.7406,2.7406,0,0,2.7204,2.7213,2.7231,2.7263,2.7273,2.7303,2.7267,2.73,2.7321,2.7294,2.7337,2.7342,2.7357,2.7408,2.7431,2.7414,2.7513,2.7481,2.7486,2.7488,2.7517,2.7527,2.7537,2.741,2.7409,2.7408,0,0,2.7275,2.7285,2.7325,2.7336,2.7353,2.7352,2.7361,2.7373,2.7376,2.7419,2.7399,2.7425,2.7469,2.7481,2.7493,2.757,2.7553,2.7579,2.7621,2.7651,2.766,2.7668,2.7695,2.7704,2.7585,2.7585,2.7585,0,2.7311,2.7355,2.7347,2.7381,2.7396,2.7374,2.7414,2.7425,2.7448,2.7459,2.744,2.7496,2.7505,2.7558,2.7577,2.7588,2.7598,2.7576,2.7659,2.7667,2.7674,2.77,2.771,2.7588,2.7587,2.7587,2.7587,0,2.7399,2.743,2.746,2.7484,2.7502,2.7539,2.7536,2.7555,2.7546,2.7547,2.7591,2.7601,2.7627,2.7639,2.7631,2.7692,2.7681,2.7661,2.7627,2.7688,2.7712,2.7722,2.7592,2.7591,2.759,2.7589,0,0,2.7494,2.7513,2.7524,2.7535,2.7552,2.7576,2.7613,2.7638,2.7655,2.7672,2.7702,2.7741,2.7723,2.7737,2.7729,2.7756,2.7816,2.7732,2.7733,2.7747,2.7883,2.7897,2.7908,2.7805,2.7807,2.7809,2.7881,0,2.7565,2.7628,2.7622,2.7682,2.771,2.769,2.7722,2.7736,2.7738,2.7762,2.7765,2.7792,2.7767,2.7775,2.78,2.7803,2.7843,2.7798,2.7832,2.7833,2.7827,2.7921,2.7935,2.8003,2.7891,2.7892,2.7893,0,2.7655,2.7677,2.774,2.7753,2.7765,2.7793,2.7816,2.784,2.7856,2.7856,2.7872,2.786,2.7897,2.7863,2.7913,2.7882,2.7896,2.79,2.7903,2.7904,2.7866,2.7924,2.8025,2.8035,2.7908,2.7907,2.7906,0,2.7717,2.7762,2.7805,2.7815,2.7832,2.7853,2.7861,2.7874,2.789,2.7911,2.7921,2.7946,2.7959,2.7978,2.7973,2.7949,2.8024,2.799,2.8024,2.8024,2.8039,2.8038,2.8143,2.8051,2.8051,2.805,2.805,0,2.7797,2.7835,2.7833,2.786,2.7903,2.7896,2.7939,2.7944,2.7957,2.7984,2.7969,2.7994,2.7988,2.8013,2.801,2.8051,2.8058,2.8058,2.8056,2.8059,2.8058,2.8066,2.8061,2.8053,2.8053,2.8052,2.8052,0,2.7872,2.7873,2.7918,2.7931,2.7935,2.7967,2.7977,2.8002,2.8004,2.8038,2.8046,2.8048,2.8078,2.8076,2.8109,2.8106,2.8157,2.8151,2.8152,2.815,2.8184,2.818,2.8296,2.8311,2.8211,2.8212,2.8212,0,2.7922,2.7952,2.7968,2.7985,2.7995,2.8023,2.8039,2.8034,2.8052,2.8073,2.8095,2.8123,2.8145,2.8193,2.8197,2.8222,2.8215,2.8254,2.8219,2.822,2.8215,2.8212,2.8215,2.8261,2.8262,2.8263,2.8263,0,2.801,2.8009,2.8033,2.8059,2.8079,2.8098,2.8116,2.8131,2.8128,2.8149,2.8179,2.8196,2.823,2.8258,2.8282,2.829,2.8276,2.8275,2.8284,2.8286,2.8285,2.8285,2.817,2.8272,2.8271,2.827,2.827,2.827,2.8073,2.8099,2.8114,2.8142,2.8156,2.8173,2.8197,2.8202,2.8227,2.8254,2.825,2.8284,2.8299,2.833,2.8341,2.8367,2.8353,2.8366,2.8369,2.8372,2.8375,2.8282,2.8371,2.8371,2.8371,2.8371,2.837,0,2.8159,2.8169,2.8195,2.8221,2.8243,2.823,2.8249,2.8268,2.8298,2.8314,2.8336,2.837,2.8398,2.8405,2.8431,2.845,2.8445,2.8457,2.8455,2.8457,2.8387,2.8376,2.8461,2.8461,2.8461,2.8461,2.8461,2.8461,2.8207,2.8249,2.825,2.8299,2.8308,2.8341,2.8353,2.8368,2.8381,2.8421,2.8443,2.8448,2.8461,2.8488,2.8512,2.8513,2.8523,2.8538,2.8537,2.8471,2.8462,2.8453,2.8443,2.8541,2.8541,2.8604,2.8605,2.8605]},{"header":{"parameterUnit":"m.s-1","parameterCategory":1,"la1":30.2991,"la2":30.254,"lo1":-89.0895,"lo2":-89.0444,"dy":0.0017,"dx":0.0017,"nx":28,"ny":28,"refTime":"2025-03-05T03:00:00:Z","depth":0,"parameterNumber":3,"parameterNumberName":"V-component_of_WINDS"},"data":[0,0,0,0,0,0,0,0,0,0,0,0,0,0,0,0,0,0,0,0,0,0,0,0,0,0,0,0,0,0,0,0,0,0,0,0,0,0,0,0,0,0,0,0,0,0,0,0,0,0,0,0,0,0,0,0,0,0,-5.0239,-5.0241,0,-5.0493,-5.0496,-5.0499,-5.0478,-5.0474,-5.047,-5.0466,-5.0728,-5.0738,-5.0748,0,0,0,0,0,0,0,0,0,0,0,0,0,-4.9736,-4.9745,-5.0238,-5.0242,-5.0245,-5.0493,-5.0496,-5.0499,-5.0478,-5.0474,-5.0469,-5.0464,-5.0724,-5.0737,-5.0749,0,0,0,0,0,0,0,0,0,0,0,0,0,-4.9969,-4.9748,-5.0238,-5.0264,-5.0269,-5.0492,-5.0496,-5.05,-5.0479,-5.0473,-5.0468,-5.0462,-5.072,-5.0735,-5.0751,-5.0965,0,0,-5.08,-5.0806,0,0,0,0,0,0,0,0,-4.9956,-4.9987,-5.0257,-5.0263,-5.0268,-5.0448,-5.0415,-5.0656,-5.0481,-5.0399,-5.0466,-5.0459,-5.0639,-5.0661,-5.0722,-5.0977,-5.0988,-5.0801,-5.0811,-5.0817,-5.0822,0,0,0,0,0,0,0,-4.9939,-4.9976,-5.0339,-5.0261,-5.0268,-5.0264,-5.029,-5.046,-5.0549,-5.0406,-5.0405,-5.0435,-5.0641,-5.0707,-5.0728,-5.0992,-5.08,-5.0815,-5.0824,-5.0831,-5.1437,-5.1444,0,0,0,0,0,0,-4.9917,-4.9963,-5.0331,-5.0347,-5.0095,-5.0277,-5.0307,-5.0396,-5.0547,-5.0564,-5.044,-5.0434,-5.0682,-5.0709,-5.0737,-5.0999,-5.0817,-5.0832,-5.0841,-5.1431,-5.1439,-5.1446,0,0,0,0,0,0,-4.9906,-4.995,-5.0321,-5.0155,-5.0202,-5.0292,-5.0392,-5.0404,-5.0469,-5.0573,-5.0588,-5.0491,-5.0679,-5.0715,-5.0909,-5.1007,-5.0839,-5.0854,-5.1423,-5.1433,-5.1442,-5.1523,0,0,0,0,0,0,-4.9892,-4.9946,-5.0028,-5.0157,-5.0211,-5.0488,-5.0398,-5.0413,-5.0497,-5.049,-5.0624,-5.0641,-5.0677,-5.0885,-5.0924,-5.1026,-5.0866,-5.1414,-5.1427,-5.1439,-5.1512,-5.1534,-5.1554,0,0,0,0,0,-4.9874,-5.0041,-5.0032,-5.0077,-5.0315,-5.0494,-5.0525,-5.0563,-5.0505,-5.0588,-5.0655,-5.0637,-5.099,-5.0905,-5.0949,-5.1057,-5.1408,-5.1424,-5.1438,-5.1503,-5.153,-5.1553,0,0,0,0,0,0,-4.9922,-5.0058,-5.005,-5.0263,-5.0367,-5.049,-5.0596,-5.059,-5.0713,-5.0702,-5.0745,-5.0775,-5.0971,-5.1033,-5.0936,-5.1273,-5.1191,-5.1216,-5.1225,-5.1252,-5.1273,-5.1255,-5.0879,0,0,0,0,0,-4.9957,-5.009,-5.0202,-5.0379,-5.0432,-5.0505,-5.0585,-5.0605,-5.0715,-5.0759,-5.0839,-5.0946,-5.1082,-5.117,-5.13,-5.152,-5.155,-5.1616,-5.1637,-5.1654,-5.1675,-5.1798,-5.1829,-5.1495,-5.1495,-5.1494,0,0,-5.0031,-5.0122,-5.0204,-5.0391,-5.0474,-5.0613,-5.0542,-5.0691,-5.0795,-5.0781,-5.097,-5.1033,-5.1155,-5.1364,-5.146,-5.1422,-5.1774,-5.1673,-5.1685,-5.1698,-5.1816,-5.1848,-5.1876,-5.1505,-5.1503,-5.1501,0,0,-5.0237,-5.0319,-5.0476,-5.0561,-5.0687,-5.0735,-5.0772,-5.0897,-5.0938,-5.1128,-5.1121,-5.1245,-5.1476,-5.1565,-5.164,-5.188,-5.1869,-5.1921,-5.2031,-5.215,-5.2177,-5.22,-5.2288,-5.2319,-5.1942,-5.1942,-5.1942,0,-5.0314,-5.0522,-5.0558,-5.0709,-5.0792,-5.0786,-5.0946,-5.1026,-5.1189,-5.1247,-5.1202,-5.1494,-5.1576,-5.1806,-5.1865,-5.1925,-5.1971,-5.1907,-5.217,-5.2194,-5.2217,-5.2301,-5.2334,-5.1948,-5.1947,-5.1946,-5.1946,0,-5.061,-5.0755,-5.0867,-5.1024,-5.112,-5.1275,-5.1335,-5.1428,-5.144,-5.1492,-5.1687,-5.1785,-5.1935,-5.1991,-5.2004,-5.2224,-5.2196,-5.216,-5.208,-5.2254,-5.2334,-5.2366,-5.1956,-5.1954,-5.1952,-5.1951,0,0,-5.0855,-5.103,-5.1071,-5.1143,-5.1282,-5.1395,-5.155,-5.1697,-5.1777,-5.1889,-5.2021,-5.2217,-5.2185,-5.2271,-5.2293,-5.2398,-5.2585,-5.2349,-5.2353,-5.2391,-5.2835,-5.2863,-5.2899,-5.2577,-5.2583,-5.2588,-5.2825,0,-5.1077,-5.1351,-5.1388,-5.1632,-5.1767,-5.1762,-5.1898,-5.1998,-5.2051,-5.2174,-5.2233,-5.2372,-5.2318,-5.237,-5.2473,-5.254,-5.2674,-5.2523,-5.2702,-5.2708,-5.2674,-5.2941,-5.2971,-5.319,-5.2856,-5.2862,-5.2866,0,-5.1373,-5.1494,-5.175,-5.1872,-5.193,-5.2051,-5.219,-5.2306,-5.2421,-5.2452,-5.2548,-5.2558,-5.2719,-5.2631,-5.2854,-5.2751,-5.2826,-5.287,-5.2879,-5.2899,-5.2799,-5.297,-5.326,-5.3294,-5.2915,-5.2911,-5.2907,0,-5.1528,-5.1755,-5.1938,-5.1999,-5.2146,-5.2231,-5.2296,-5.2404,-5.2491,-5.2612,-5.2669,-5.2807,-5.2883,-5.299,-5.3038,-5.2968,-5.326,-5.3174,-5.3292,-5.3291,-5.3355,-5.3351,-5.3664,-5.34,-5.3399,-5.3399,-5.3398,0,-5.1773,-5.1931,-5.201,-5.2123,-5.23,-5.2341,-5.2516,-5.2578,-5.2674,-5.28,-5.2804,-5.2922,-5.2976,-5.3103,-5.3141,-5.3322,-5.3356,-5.3387,-5.3396,-5.3388,-5.3385,-5.344,-5.3427,-5.3408,-5.3406,-5.3404,-5.3402,0,-5.1978,-5.2036,-5.2236,-5.2358,-5.2393,-5.2518,-5.2623,-5.2733,-5.2785,-5.2944,-5.2984,-5.3066,-5.3216,-5.3273,-5.3455,-5.3481,-5.369,-5.3686,-5.3652,-5.3655,-5.377,-5.376,-5.4131,-5.4183,-5.3883,-5.3886,-5.3888,0,-5.2131,-5.2253,-5.2388,-5.2472,-5.254,-5.2676,-5.2764,-5.2809,-5.2902,-5.3041,-5.3135,-5.3284,-5.3406,-5.3645,-5.3721,-5.3861,-5.3861,-5.3982,-5.3882,-5.3872,-5.3866,-5.3859,-5.3873,-5.4001,-5.4004,-5.4006,-5.4008,0,-5.2399,-5.2422,-5.2549,-5.2688,-5.2793,-5.2904,-5.3012,-5.3081,-5.3142,-5.3246,-5.3399,-5.3493,-5.3679,-5.3828,-5.3972,-5.4039,-5.4036,-5.4039,-5.4074,-5.4069,-5.4045,-5.4062,-5.3705,-5.4031,-5.4029,-5.4027,-5.4026,-5.4025,-5.2585,-5.2693,-5.2805,-5.2947,-5.3033,-5.3134,-5.3244,-5.331,-5.3438,-5.3593,-5.3612,-5.3777,-5.3889,-5.4081,-5.4155,-5.4285,-5.4253,-5.4303,-5.4317,-5.4329,-5.4338,-5.4023,-5.4311,-5.4311,-5.431,-5.431,-5.4309,0,-5.2854,-5.2926,-5.3056,-5.3207,-5.3319,-5.3304,-5.3423,-5.3518,-5.3663,-5.3767,-5.3887,-5.4064,-5.4208,-5.4296,-5.4441,-5.4528,-5.453,-5.4565,-5.456,-5.4576,-5.4357,-5.4314,-5.4561,-5.4561,-5.4561,-5.4561,-5.4561,-5.4561,-5.3008,-5.3191,-5.3228,-5.3454,-5.3525,-5.3686,-5.3756,-5.3849,-5.3933,-5.413,-5.425,-5.4306,-5.4404,-5.4557,-5.4689,-5.4711,-5.4765,-5.4803,-5.4823,-5.4617,-5.4591,-5.4567,-5.4526,-5.4814,-5.4814,-5.5032,-5.5034,-5.5035]}]]